| time (UTC) | temp F | wind direction | speed knots | gust knots | rain 1hr in | rain 24hr in | rain mn in | humidity % | barometer mb |
| 20260507021007 | 45 | 11 | 3.5 | 9.6 | 0.00 | 0.01 | 0.00 | 97 | 1001.8 |
| 20260507020506 | 45 | 5 | 3.5 | 8.7 | 0.00 | 0.01 | 0.00 | 97 | 1001.8 |
| 20260507015958 | 45 | 14 | 4.3 | 8.7 | 0.00 | 0.01 | 0.00 | 97 | 1001.7 |
| 20260507015458 | 45 | 8 | 4.3 | 8.7 | 0.00 | 0.01 | 0.00 | 97 | 1001.6 |
| 20260507014957 | 45 | 17 | 4.3 | 9.6 | 0.00 | 0.01 | 0.00 | 97 | 1001.4 |
| 20260507014508 | 45 | 24 | 4.3 | 11.3 | 0.00 | 0.01 | 0.00 | 96 | 1001.4 |
| 20260507014006 | 46 | 12 | 5.2 | 11.3 | 0.00 | 0.01 | 0.00 | 96 | 1001.2 |
| 20260507013506 | 46 | 15 | 4.3 | 9.6 | 0.00 | 0.01 | 0.00 | 96 | 1001.1 |
| 20260507013007 | 46 | 23 | 5.2 | 12.2 | 0.00 | 0.01 | 0.00 | 96 | 1001.0 |
| 20260507012458 | 46 | 16 | 5.2 | 12.2 | 0.00 | 0.01 | 0.00 | 95 | 1000.9 |
| 20260507012008 | 46 | 7 | 5.2 | 11.3 | 0.00 | 0.01 | 0.00 | 95 | 1000.9 |
| 20260507011506 | 46 | 3 | 5.2 | 9.6 | 0.00 | 0.01 | 0.00 | 95 | 1000.8 |
| 20260507010958 | 47 | 349 | 5.2 | 9.6 | 0.00 | 0.01 | 0.00 | 95 | 1000.9 |
| 20260507010506 | 47 | 352 | 5.2 | 9.6 | 0.00 | 0.01 | 0.00 | 94 | 1000.8 |
| 20260507005959 | 47 | 12 | 4.3 | 7.8 | 0.00 | 0.01 | 0.00 | 94 | 1000.9 |
| 20260507005458 | 47 | 20 | 5.2 | 10.4 | 0.00 | 0.01 | 0.00 | 94 | 1000.9 |
| 20260507004959 | 47 | 23 | 4.3 | 10.4 | 0.00 | 0.01 | 0.00 | 94 | 1000.8 |
| 20260507004507 | 47 | 19 | 3.5 | 7.8 | 0.00 | 0.01 | 0.00 | 94 | 1000.8 |
| 20260507003959 | 47 | 12 | 3.5 | 7.8 | 0.00 | 0.01 | 0.00 | 94 | 1000.9 |
| 20260507003458 | 48 | 11 | 3.5 | 7.8 | 0.00 | 0.01 | 0.00 | 94 | 1000.9 |
| 20260507003009 | 48 | 18 | 3.5 | 7.8 | 0.00 | 0.01 | 0.00 | 95 | 1000.8 |
| 20260507002458 | 48 | 14 | 3.5 | 7.8 | 0.00 | 0.01 | 0.00 | 95 | 1001.0 |
| 20260507002007 | 48 | 6 | 3.5 | 8.7 | 0.00 | 0.01 | 0.00 | 95 | 1000.8 |
| 20260507001507 | 48 | 6 | 3.5 | 8.7 | 0.00 | 0.01 | 0.00 | 95 | 1000.9 |
| 20260507000959 | 48 | 4 | 3.5 | 7.0 | 0.00 | 0.01 | 0.00 | 95 | 1000.8 |
| 20260507000459 | 48 | 10 | 3.5 | 7.0 | 0.00 | 0.01 | 0.00 | 95 | 1000.7 |
| 20260506235958 | 48 | 21 | 3.5 | 7.0 | 0.00 | 0.01 | 0.00 | 96 | 1000.7 |
| 20260506235507 | 48 | 11 | 3.5 | 7.0 | 0.00 | 0.01 | 0.00 | 95 | 1000.6 |
| 20260506234959 | 48 | 7 | 3.5 | 7.0 | 0.00 | 0.01 | 0.00 | 95 | 1000.8 |
| 20260506234459 | 48 | 17 | 2.6 | 7.0 | 0.00 | 0.01 | 0.00 | 95 | 1000.8 |
| 20260506234007 | 48 | 19 | 3.5 | 7.0 | 0.00 | 0.01 | 0.00 | 96 | 1000.5 |
| 20260506233458 | 48 | 21 | 3.5 | 8.7 | 0.00 | 0.01 | 0.00 | 96 | 1000.7 |
| 20260506233006 | 48 | 19 | 4.3 | 8.7 | 0.00 | 0.01 | 0.00 | 95 | 1000.7 |
| 20260506232507 | 48 | 9 | 3.5 | 8.7 | 0.00 | 0.01 | 0.00 | 95 | 1000.7 |
| 20260506232009 | 49 | 7 | 3.5 | 8.7 | 0.00 | 0.01 | 0.00 | 95 | 1000.6 |
| 20260506231506 | 49 | 15 | 3.5 | 8.7 | 0.00 | 0.01 | 0.00 | 95 | 1000.6 |
| 20260506230958 | 49 | 32 | 3.5 | 8.7 | 0.00 | 0.01 | 0.00 | 95 | 1000.7 |
| 20260506230459 | 49 | 25 | 3.5 | 8.7 | 0.00 | 0.01 | 0.00 | 94 | 1000.7 |
| 20260506230007 | 49 | 12 | 4.3 | 8.7 | 0.00 | 0.01 | 0.00 | 94 | 1000.6 |
| 20260506225509 | 49 | 17 | 5.2 | 7.8 | 0.00 | 0.01 | 0.00 | 93 | 1000.6 |
| 20260506225007 | 50 | 16 | 4.3 | 7.8 | 0.00 | 0.01 | 0.00 | 92 | 1000.8 |
| 20260506224507 | 50 | 12 | 3.5 | 7.8 | 0.00 | 0.01 | 0.00 | 92 | 1000.9 |
| 20260506224009 | 50 | 16 | 3.5 | 7.0 | 0.00 | 0.01 | 0.00 | 92 | 1000.7 |
| 20260506223458 | 51 | 20 | 3.5 | 7.0 | 0.00 | 0.01 | 0.00 | 91 | 1000.7 |
| 20260506223006 | 51 | 14 | 2.6 | 8.7 | 0.00 | 0.01 | 0.00 | 90 | 1000.8 |
| 20260506222458 | 51 | 18 | 1.7 | 8.7 | 0.00 | 0.01 | 0.00 | 89 | 1000.7 |
| 20260506222007 | 51 | 28 | 0.9 | 2.6 | 0.00 | 0.01 | 0.00 | 89 | 1000.7 |
| 20260506221458 | 51 | 19 | 0.9 | 2.6 | 0.00 | 0.01 | 0.00 | 89 | 1000.5 |
| 20260506220958 | 51 | 19 | 0.0 | 2.6 | 0.00 | 0.01 | 0.00 | 89 | 1000.5 |
| 20260506220458 | 51 | 8 | 0.9 | 3.5 | 0.00 | 0.01 | 0.00 | 89 | 1000.6 |
| 20260506220007 | 51 | 1 | 1.7 | 3.5 | 0.00 | 0.01 | 0.00 | 89 | 1000.6 |
| 20260506215509 | 51 | 351 | 0.9 | 3.5 | 0.00 | 0.01 | 0.01 | 89 | 1000.5 |
| 20260506214959 | 51 | 307 | 0.9 | 3.5 | 0.00 | 0.01 | 0.01 | 89 | 1000.7 |
| 20260506214506 | 51 | 325 | 1.7 | 3.5 | 0.00 | 0.01 | 0.01 | 89 | 1000.7 |
| 20260506213958 | 51 | 278 | 1.7 | 3.5 | 0.00 | 0.01 | 0.01 | 89 | 1000.6 |
| 20260506213509 | 51 | 192 | 1.7 | 3.5 | 0.00 | 0.01 | 0.01 | 89 | 1000.7 |
| 20260506212958 | 51 | 9 | 1.7 | 3.5 | 0.00 | 0.01 | 0.01 | 90 | 1000.6 |
| 20260506212506 | 51 | 358 | 2.6 | 7.0 | 0.00 | 0.01 | 0.01 | 90 | 1000.2 |
| 20260506212007 | 51 | 348 | 4.3 | 7.8 | 0.00 | 0.01 | 0.01 | 90 | 999.8 |
| 20260506211459 | 51 | 351 | 5.2 | 9.6 | 0.00 | 0.01 | 0.01 | 90 | 999.9 |
| 20260506211006 | 51 | 1 | 6.1 | 9.6 | 0.00 | 0.01 | 0.01 | 89 | 999.8 |
| 20260506210458 | 51 | 353 | 5.2 | 13.0 | 0.00 | 0.01 | 0.01 | 90 | 999.9 |
| 20260506210007 | 51 | 345 | 5.2 | 13.0 | 0.00 | 0.01 | 0.01 | 90 | 999.9 |
| 20260506205459 | 51 | 350 | 5.2 | 13.0 | 0.00 | 0.01 | 0.01 | 90 | 1000.1 |
| 20260506204959 | 51 | 4 | 4.3 | 9.6 | 0.00 | 0.01 | 0.01 | 90 | 1000.1 |
| 20260506204458 | 51 | 4 | 3.5 | 9.6 | 0.00 | 0.01 | 0.01 | 89 | 1000.2 |
| 20260506204007 | 51 | 354 | 3.5 | 8.7 | 0.00 | 0.01 | 0.01 | 89 | 1000.0 |
| 20260506203506 | 51 | 339 | 4.3 | 8.7 | 0.00 | 0.01 | 0.01 | 89 | 1000.2 |
| 20260506203007 | 51 | 332 | 4.3 | 9.6 | 0.00 | 0.01 | 0.01 | 89 | 1000.1 |
| 20260506202507 | 51 | 341 | 5.2 | 10.4 | 0.00 | 0.01 | 0.01 | 89 | 1000.2 |
| 20260506202009 | 52 | 354 | 5.2 | 10.4 | 0.00 | 0.01 | 0.01 | 89 | 999.9 |
| 20260506201459 | 52 | 351 | 4.3 | 9.6 | 0.00 | 0.01 | 0.01 | 89 | 999.9 |
| 20260506201007 | 52 | 339 | 4.3 | 8.7 | 0.00 | 0.01 | 0.01 | 89 | 1000.0 |
| 20260506200507 | 52 | 344 | 3.5 | 7.8 | 0.00 | 0.01 | 0.01 | 89 | 999.9 |
| 20260506195959 | 52 | 344 | 3.5 | 7.8 | 0.00 | 0.01 | 0.01 | 89 | 1000.1 |
| 20260506195506 | 52 | 338 | 3.5 | 8.7 | 0.00 | 0.01 | 0.01 | 88 | 1000.0 |
| 20260506195006 | 52 | 347 | 3.5 | 8.7 | 0.00 | 0.01 | 0.01 | 89 | 1000.0 |
| 20260506194506 | 53 | 346 | 4.3 | 11.3 | 0.00 | 0.01 | 0.01 | 89 | 999.9 |
| 20260506194008 | 53 | 347 | 5.2 | 11.3 | 0.00 | 0.01 | 0.01 | 88 | 999.8 |
| 20260506193506 | 53 | 350 | 6.1 | 11.3 | 0.00 | 0.01 | 0.01 | 88 | 999.8 |
| 20260506193007 | 53 | 345 | 5.2 | 11.3 | 0.00 | 0.01 | 0.01 | 89 | 999.6 |
| 20260506192507 | 53 | 336 | 3.5 | 9.6 | 0.00 | 0.01 | 0.01 | 88 | 999.8 |
| 20260506191958 | 53 | 323 | 3.5 | 8.7 | 0.00 | 0.01 | 0.01 | 88 | 999.7 |
| 20260506191508 | 53 | 315 | 3.5 | 7.8 | 0.00 | 0.01 | 0.01 | 87 | 999.6 |
| 20260506191009 | 53 | 314 | 3.5 | 7.8 | 0.00 | 0.01 | 0.01 | 87 | 999.8 |
| 20260506190459 | 54 | 324 | 3.5 | 7.0 | 0.00 | 0.01 | 0.01 | 86 | 999.7 |
| 20260506190007 | 54 | 325 | 2.6 | 7.0 | 0.00 | 0.01 | 0.01 | 86 | 999.4 |
| 20260506185459 | 54 | 315 | 2.6 | 6.1 | 0.00 | 0.01 | 0.01 | 85 | 999.5 |
| 20260506184959 | 54 | 305 | 2.6 | 6.1 | 0.00 | 0.01 | 0.01 | 85 | 999.4 |
| 20260506184459 | 54 | 308 | 2.6 | 6.1 | 0.00 | 0.01 | 0.01 | 85 | 999.4 |
| 20260506183959 | 54 | 316 | 2.6 | 7.0 | 0.00 | 0.01 | 0.01 | 84 | 999.4 |
| 20260506183506 | 54 | 306 | 2.6 | 7.0 | 0.00 | 0.01 | 0.01 | 84 | 999.3 |
| 20260506182958 | 55 | 305 | 3.5 | 7.0 | 0.00 | 0.01 | 0.01 | 84 | 999.1 |
| 20260506182507 | 55 | 322 | 3.5 | 7.8 | 0.00 | 0.01 | 0.01 | 83 | 999.0 |
| 20260506181959 | 55 | 326 | 2.6 | 7.8 | 0.00 | 0.01 | 0.01 | 83 | 999.1 |
| 20260506181500 | 56 | 319 | 1.7 | 6.1 | 0.00 | 0.01 | 0.01 | 83 | 999.0 |
| 20260506181008 | 56 | 318 | 2.6 | 6.1 | 0.00 | 0.01 | 0.01 | 82 | 999.0 |
| 20260506180459 | 56 | 318 | 3.5 | 8.7 | 0.00 | 0.01 | 0.01 | 82 | 998.8 |
| 20260506180007 | 56 | 325 | 4.3 | 8.7 | 0.00 | 0.01 | 0.01 | 81 | 998.9 |
| 20260506175500 | 57 | 320 | 4.3 | 9.6 | 0.00 | 0.01 | 0.01 | 81 | 998.8 |
| 20260506174959 | 57 | 323 | 3.5 | 9.6 | 0.00 | 0.01 | 0.01 | 81 | 998.9 |
| 20260506174507 | 57 | 339 | 3.5 | 9.6 | 0.00 | 0.01 | 0.01 | 81 | 998.7 |
| 20260506173959 | 58 | 335 | 4.3 | 9.6 | 0.00 | 0.01 | 0.01 | 80 | 998.6 |
| 20260506173507 | 58 | 333 | 4.3 | 9.6 | 0.00 | 0.01 | 0.01 | 79 | 998.6 |
| 20260506173007 | 60 | 329 | 4.3 | 8.7 | 0.00 | 0.01 | 0.01 | 79 | 998.7 |
| 20260506172509 | 59 | 321 | 3.5 | 8.7 | 0.00 | 0.01 | 0.01 | 79 | 998.7 |
| 20260506171459 | 60 | 304 | 4.3 | 9.6 | 0.00 | 0.01 | 0.01 | 78 | 998.7 |
| 20260506170959 | 60 | 307 | 3.5 | 9.6 | 0.00 | 0.01 | 0.01 | 77 | 998.6 |
| 20260506170507 | 60 | 314 | 3.5 | 7.8 | 0.00 | 0.01 | 0.01 | 77 | 998.5 |
| 20260506165958 | 60 | 303 | 3.5 | 9.6 | 0.00 | 0.01 | 0.01 | 77 | 998.6 |
| 20260506165508 | 61 | 303 | 5.2 | 10.4 | 0.00 | 0.01 | 0.01 | 76 | 998.6 |
| 20260506164959 | 61 | 306 | 6.1 | 10.4 | 0.00 | 0.01 | 0.01 | 76 | 998.5 |
| 20260506164507 | 61 | 278 | 5.2 | 10.4 | 0.00 | 0.01 | 0.01 | 75 | 998.4 |
| 20260506163959 | 62 | 285 | 5.2 | 11.3 | 0.00 | 0.01 | 0.01 | 75 | 998.5 |
| 20260506163509 | 62 | 304 | 5.2 | 12.2 | 0.00 | 0.01 | 0.01 | 75 | 998.4 |
| 20260506162959 | 62 | 315 | 6.1 | 13.0 | 0.00 | 0.01 | 0.01 | 75 | 998.4 |
| 20260506162508 | 63 | 316 | 6.1 | 13.0 | 0.00 | 0.01 | 0.01 | 74 | 998.4 |
| 20260506161959 | 63 | 306 | 5.2 | 13.0 | 0.00 | 0.01 | 0.01 | 74 | 998.6 |
| 20260506161507 | 64 | 311 | 4.3 | 10.4 | 0.00 | 0.01 | 0.01 | 74 | 998.5 |
| 20260506160959 | 67 | 313 | 4.3 | 9.6 | 0.00 | 0.01 | 0.01 | 73 | 998.3 |
| 20260506160507 | 65 | 312 | 4.3 | 10.4 | 0.00 | 0.01 | 0.01 | 74 | 998.3 |
| 20260506160009 | 65 | 304 | 4.3 | 10.4 | 0.00 | 0.01 | 0.01 | 74 | 998.2 |
| 20260506155459 | 65 | 303 | 4.3 | 10.4 | 0.00 | 0.01 | 0.01 | 74 | 998.2 |
| 20260506154959 | 65 | 310 | 4.3 | 10.4 | 0.00 | 0.01 | 0.01 | 73 | 998.3 |
| 20260506154459 | 65 | 317 | 3.5 | 9.6 | 0.00 | 0.01 | 0.01 | 74 | 998.2 |
| 20260506153959 | 65 | 307 | 3.5 | 10.4 | 0.00 | 0.01 | 0.01 | 74 | 998.0 |
| 20260506153509 | 65 | 302 | 3.5 | 10.4 | 0.00 | 0.01 | 0.01 | 75 | 998.0 |
| 20260506152959 | 65 | 313 | 4.3 | 9.6 | 0.00 | 0.01 | 0.01 | 74 | 998.3 |
| 20260506152508 | 66 | 310 | 4.3 | 9.6 | 0.00 | 0.01 | 0.01 | 74 | 998.0 |
| 20260506152009 | 66 | 301 | 4.3 | 11.3 | 0.00 | 0.01 | 0.01 | 74 | 998.0 |
| 20260506151510 | 65 | 293 | 5.2 | 11.3 | 0.00 | 0.01 | 0.01 | 73 | 997.9 |
| 20260506150959 | 66 | 280 | 5.2 | 9.6 | 0.00 | 0.01 | 0.01 | 73 | 997.9 |
| 20260506150507 | 66 | 292 | 4.3 | 9.6 | 0.00 | 0.01 | 0.01 | 72 | 998.0 |
| 20260506145959 | 66 | 317 | 5.2 | 10.4 | 0.00 | 0.01 | 0.01 | 72 | 998.1 |
| 20260506145508 | 66 | 324 | 6.1 | 10.4 | 0.00 | 0.01 | 0.01 | 71 | 998.0 |
| 20260506145000 | 67 | 313 | 5.2 | 10.4 | 0.00 | 0.01 | 0.01 | 71 | 998.1 |
| 20260506144507 | 67 | 306 | 4.3 | 12.2 | 0.00 | 0.01 | 0.01 | 70 | 997.9 |
| 20260506143959 | 67 | 310 | 4.3 | 12.2 | 0.00 | 0.01 | 0.01 | 69 | 997.9 |
| 20260506143507 | 67 | 311 | 3.5 | 9.6 | 0.00 | 0.01 | 0.01 | 70 | 997.8 |
| 20260506143010 | 67 | 312 | 3.5 | 7.8 | 0.00 | 0.01 | 0.01 | 69 | 997.8 |
| 20260506142459 | 67 | 313 | 3.5 | 7.8 | 0.00 | 0.01 | 0.01 | 68 | 997.9 |
| 20260506142007 | 68 | 299 | 3.5 | 9.6 | 0.00 | 0.01 | 0.01 | 68 | 997.9 |
| 20260506141459 | 69 | 271 | 3.5 | 9.6 | 0.00 | 0.01 | 0.01 | 68 | 997.8 |
| 20260506141009 | 68 | 243 | 3.5 | 7.0 | 0.00 | 0.01 | 0.01 | 69 | 997.7 |
| 20260506140459 | 67 | 254 | 4.3 | 11.3 | 0.00 | 0.01 | 0.01 | 70 | 997.9 |
| 20260506140007 | 67 | 260 | 4.3 | 11.3 | 0.00 | 0.01 | 0.01 | 70 | 997.6 |
| 20260506135500 | 66 | 258 | 4.3 | 8.7 | 0.00 | 0.01 | 0.01 | 70 | 997.9 |
| 20260506134959 | 66 | 273 | 4.3 | 8.7 | 0.00 | 0.01 | 0.01 | 70 | 997.6 |
| 20260506134506 | 65 | 266 | 3.5 | 8.7 | 0.00 | 0.01 | 0.01 | 71 | 997.8 |
| 20260506134007 | 65 | 256 | 3.5 | 7.8 | 0.00 | 0.01 | 0.01 | 71 | 997.8 |
| 20260506133459 | 65 | 257 | 3.5 | 7.8 | 0.00 | 0.01 | 0.01 | 71 | 997.6 |
| 20260506133007 | 65 | 270 | 4.3 | 7.8 | 0.00 | 0.01 | 0.01 | 70 | 997.5 |
| 20260506132508 | 65 | 258 | 3.5 | 7.0 | 0.00 | 0.01 | 0.01 | 69 | 997.7 |
| 20260506131959 | 65 | 247 | 4.3 | 8.7 | 0.00 | 0.01 | 0.01 | 70 | 997.5 |
| 20260506131508 | 65 | 258 | 4.3 | 11.3 | 0.00 | 0.01 | 0.01 | 69 | 997.4 |
| 20260506130959 | 65 | 240 | 4.3 | 11.3 | 0.00 | 0.01 | 0.01 | 69 | 997.4 |
| 20260506130507 | 65 | 239 | 4.3 | 9.6 | 0.00 | 0.01 | 0.01 | 70 | 997.4 |
| 20260506125959 | 65 | 248 | 4.3 | 9.6 | 0.00 | 0.01 | 0.01 | 70 | 997.6 |
| 20260506125459 | 65 | 243 | 4.3 | 8.7 | 0.00 | 0.01 | 0.01 | 70 | 997.6 |
| 20260506125007 | 65 | 256 | 6.1 | 13.9 | 0.00 | 0.01 | 0.01 | 70 | 997.4 |
| 20260506124500 | 65 | 260 | 6.1 | 13.9 | 0.00 | 0.01 | 0.01 | 69 | 997.6 |
| 20260506124007 | 65 | 272 | 5.2 | 13.9 | 0.00 | 0.01 | 0.01 | 71 | 997.5 |
| 20260506123459 | 65 | 284 | 5.2 | 13.9 | 0.00 | 0.01 | 0.01 | 71 | 997.6 |
| 20260506123007 | 65 | 251 | 4.3 | 9.6 | 0.00 | 0.01 | 0.01 | 72 | 997.5 |
| 20260506122459 | 64 | 229 | 3.5 | 9.6 | 0.00 | 0.01 | 0.01 | 72 | 997.6 |
| 20260506122007 | 64 | 225 | 4.3 | 11.3 | 0.00 | 0.01 | 0.01 | 73 | 997.5 |
| 20260506121459 | 63 | 224 | 5.2 | 11.3 | 0.00 | 0.01 | 0.01 | 72 | 997.7 |
| 20260506121009 | 64 | 225 | 5.2 | 9.6 | 0.00 | 0.01 | 0.01 | 72 | 997.8 |
| 20260506120459 | 64 | 219 | 4.3 | 10.4 | 0.00 | 0.01 | 0.01 | 72 | 997.8 |
| 20260506120000 | 64 | 205 | 4.3 | 10.4 | 0.00 | 0.01 | 0.01 | 72 | 997.6 |
| 20260506115507 | 64 | 201 | 4.3 | 9.6 | 0.00 | 0.01 | 0.01 | 72 | 997.5 |
| 20260506115009 | 63 | 207 | 4.3 | 9.6 | 0.00 | 0.01 | 0.01 | 72 | 997.6 |
| 20260506114459 | 65 | 197 | 5.2 | 9.6 | 0.00 | 0.01 | 0.01 | 72 | 997.6 |
| 20260506114007 | 64 | 189 | 5.2 | 9.6 | 0.00 | 0.01 | 0.01 | 73 | 997.6 |
| 20260506113459 | 64 | 192 | 4.3 | 8.7 | 0.00 | 0.01 | 0.01 | 74 | 997.5 |
| 20260506113009 | 64 | 189 | 3.5 | 8.7 | 0.00 | 0.01 | 0.01 | 74 | 997.6 |
| 20260506112459 | 63 | 194 | 3.5 | 7.0 | 0.00 | 0.01 | 0.01 | 74 | 997.6 |
| 20260506112009 | 63 | 191 | 2.6 | 7.0 | 0.00 | 0.01 | 0.01 | 74 | 997.6 |
| 20260506111459 | 63 | 206 | 2.6 | 7.0 | 0.00 | 0.01 | 0.01 | 74 | 997.5 |
| 20260506111009 | 63 | 225 | 4.3 | 7.0 | 0.00 | 0.01 | 0.01 | 73 | 997.8 |
| 20260506110459 | 64 | 227 | 4.3 | 8.7 | 0.00 | 0.01 | 0.01 | 72 | 997.7 |
| 20260506110007 | 64 | 219 | 4.3 | 10.4 | 0.00 | 0.01 | 0.01 | 72 | 997.7 |
| 20260506105459 | 64 | 211 | 4.3 | 10.4 | 0.00 | 0.01 | 0.01 | 73 | 997.6 |
| 20260506105007 | 64 | 237 | 5.2 | 13.0 | 0.00 | 0.01 | 0.01 | 73 | 997.7 |
| 20260506104459 | 64 | 242 | 5.2 | 13.0 | 0.00 | 0.01 | 0.01 | 74 | 997.8 |
| 20260506104007 | 63 | 222 | 5.2 | 12.2 | 0.00 | 0.01 | 0.01 | 75 | 997.7 |
| 20260506103459 | 63 | 216 | 5.2 | 12.2 | 0.00 | 0.01 | 0.01 | 76 | 997.8 |
| 20260506103009 | 62 | 199 | 6.1 | 11.3 | 0.00 | 0.01 | 0.01 | 75 | 997.8 |
| 20260506102500 | 62 | 198 | 6.1 | 11.3 | 0.00 | 0.01 | 0.01 | 75 | 997.9 |
| 20260506102008 | 62 | 202 | 5.2 | 10.4 | 0.00 | 0.01 | 0.01 | 76 | 997.8 |
| 20260506101459 | 62 | 217 | 4.3 | 10.4 | 0.00 | 0.01 | 0.01 | 78 | 997.7 |
| 20260506101009 | 61 | 227 | 5.2 | 9.6 | 0.00 | 0.01 | 0.01 | 77 | 997.6 |
| 20260506100500 | 61 | 229 | 4.3 | 9.6 | 0.00 | 0.01 | 0.01 | 77 | 997.7 |
| 20260506100008 | 61 | 242 | 3.5 | 9.6 | 0.00 | 0.01 | 0.01 | 77 | 997.8 |
| 20260506095459 | 61 | 240 | 4.3 | 9.6 | 0.00 | 0.01 | 0.01 | 77 | 997.7 |
| 20260506095009 | 61 | 228 | 5.2 | 9.6 | 0.00 | 0.01 | 0.01 | 76 | 997.8 |
| 20260506094500 | 61 | 224 | 3.5 | 9.6 | 0.00 | 0.01 | 0.01 | 77 | 997.8 |
| 20260506094007 | 61 | 217 | 4.3 | 9.6 | 0.00 | 0.01 | 0.01 | 77 | 997.7 |
| 20260506093500 | 60 | 223 | 5.2 | 9.6 | 0.00 | 0.01 | 0.01 | 76 | 997.9 |
| 20260506093008 | 61 | 237 | 5.2 | 10.4 | 0.00 | 0.01 | 0.01 | 77 | 997.7 |
| 20260506092459 | 61 | 229 | 5.2 | 10.4 | 0.00 | 0.01 | 0.01 | 77 | 997.6 |
| 20260506092009 | 61 | 214 | 5.2 | 10.4 | 0.00 | 0.01 | 0.01 | 78 | 997.7 |
| 20260506091459 | 60 | 220 | 5.2 | 10.4 | 0.00 | 0.01 | 0.01 | 79 | 997.7 |
| 20260506091010 | 60 | 229 | 5.2 | 10.4 | 0.00 | 0.01 | 0.01 | 79 | 997.6 |
| 20260506090500 | 60 | 232 | 6.1 | 11.3 | 0.00 | 0.01 | 0.01 | 79 | 997.8 |
| 20260506090007 | 60 | 245 | 6.1 | 12.2 | 0.00 | 0.01 | 0.01 | 79 | 997.6 |
| 20260506085459 | 60 | 246 | 6.1 | 12.2 | 0.00 | 0.01 | 0.01 | 80 | 997.4 |
| 20260506085008 | 60 | 227 | 6.1 | 12.2 | 0.00 | 0.01 | 0.01 | 80 | 997.4 |
| 20260506084500 | 60 | 213 | 4.3 | 11.3 | 0.01 | 0.01 | 0.01 | 82 | 997.4 |
| 20260506084008 | 59 | 219 | 4.3 | 11.3 | 0.01 | 0.01 | 0.01 | 83 | 997.4 |
| 20260506083508 | 59 | 235 | 3.5 | 9.6 | 0.01 | 0.01 | 0.01 | 83 | 997.5 |
| 20260506083000 | 58 | 244 | 3.5 | 6.1 | 0.01 | 0.01 | 0.01 | 83 | 997.2 |
| 20260506082508 | 58 | 227 | 4.3 | 10.4 | 0.01 | 0.01 | 0.01 | 83 | 997.4 |
| 20260506082000 | 58 | 231 | 5.2 | 10.4 | 0.01 | 0.01 | 0.01 | 83 | 997.2 |
| 20260506081508 | 58 | 237 | 4.3 | 9.6 | 0.01 | 0.01 | 0.01 | 83 | 997.4 |
| 20260506080959 | 58 | 251 | 4.3 | 9.6 | 0.01 | 0.01 | 0.01 | 85 | 997.5 |
| 20260506080509 | 57 | 256 | 4.3 | 7.0 | 0.01 | 0.01 | 0.01 | 87 | 997.4 |
| 20260506073500 | 54 | 208 | 2.6 | 5.2 | 0.00 | 0.00 | 0.00 | 88 | 997.3 |
| 20260506073007 | 54 | 206 | 2.6 | 5.2 | 0.00 | 0.00 | 0.00 | 88 | 997.4 |
| 20260506072459 | 54 | 217 | 2.6 | 7.0 | 0.00 | 0.00 | 0.00 | 88 | 997.6 |
| 20260506072010 | 56 | 213 | 2.6 | 7.0 | 0.00 | 0.00 | 0.00 | 87 | 997.5 |
| 20260506071500 | 54 | 185 | 1.7 | 4.3 | 0.00 | 0.00 | 0.00 | 87 | 997.5 |
| 20260506071007 | 54 | 149 | 1.7 | 3.5 | 0.00 | 0.00 | 0.00 | 86 | 997.1 |
| 20260506070500 | 55 | 132 | 0.9 | 3.5 | 0.00 | 0.00 | 0.00 | 83 | 997.2 |
| 20260506062507 | 55 | 141 | 2.6 | 5.2 | 0.00 | 0.00 | 0.00 | 86 | 997.1 |
| 20260506062000 | 55 | 134 | 2.6 | 6.1 | 0.00 | 0.00 | 0.00 | 86 | 997.1 |
| 20260506061507 | 54 | 120 | 3.5 | 7.0 | 0.00 | 0.00 | 0.00 | 86 | 997.0 |
| 20260506061000 | 54 | 111 | 4.3 | 7.0 | 0.00 | 0.00 | 0.00 | 87 | 997.1 |
| 20260506060509 | 54 | 99 | 4.3 | 7.8 | 0.00 | 0.00 | 0.00 | 86 | 997.0 |
| 20260506051000 | 52 | 11 | 4.3 | 7.8 | 0.00 | 0.00 | 0.00 | 92 | 997.0 |
| 20260506050508 | 52 | 25 | 4.3 | 9.6 | 0.00 | 0.00 | 0.00 | 94 | 996.9 |
| 20260506045000 | 51 | 68 | 6.1 | 13.0 | 0.00 | 0.00 | 0.00 | 96 | 997.1 |
| 20260506044507 | 51 | 73 | 4.3 | 13.0 | 0.00 | 0.00 | 0.00 | 96 | 997.1 |
| 20260506044000 | 51 | 70 | 4.3 | 9.6 | 0.00 | 0.00 | 0.00 | 97 | 997.2 |
| 20260506043500 | 51 | 61 | 4.3 | 9.6 | 0.00 | 0.00 | 0.00 | 97 | 997.2 |
| 20260506043008 | 51 | 53 | 4.3 | 9.6 | 0.00 | 0.00 | 0.00 | 97 | 997.3 |
| 20260506042508 | 51 | 56 | 5.2 | 9.6 | 0.00 | 0.00 | 0.00 | 100 | 997.3 |
| 20260506042007 | 51 | 55 | 4.3 | 9.6 | 0.00 | 0.00 | 0.00 | 100 | 997.2 |
| 20260506041507 | 50 | 47 | 4.3 | 9.6 | 0.00 | 0.00 | 0.00 | 100 | 997.2 |
| 20260506041000 | 50 | 45 | 4.3 | 9.6 | 0.00 | 0.00 | 0.00 | 100 | 997.1 |
| 20260506040509 | 50 | 43 | 5.2 | 9.6 | 0.00 | 0.01 | 0.00 | 100 | 997.1 |
| 20260506040000 | 50 | 38 | 5.2 | 10.4 | 0.00 | 0.01 | 0.00 | 100 | 997.2 |
| 20260506035510 | 50 | 40 | 4.3 | 10.4 | 0.00 | 0.01 | 0.00 | 100 | 997.4 |
| 20260506035007 | 50 | 48 | 4.3 | 7.8 | 0.00 | 0.01 | 0.00 | 100 | 997.4 |
| 20260506034508 | 50 | 44 | 4.3 | 9.6 | 0.00 | 0.01 | 0.00 | 100 | 997.8 |
| 20260506034008 | 50 | 39 | 4.3 | 9.6 | 0.00 | 0.02 | 0.00 | 100 | 997.7 |
| 20260506033510 | 50 | 40 | 4.3 | 9.6 | 0.00 | 0.02 | 0.00 | 100 | 997.8 |
| 20260506033007 | 50 | 45 | 5.2 | 9.6 | 0.00 | 0.02 | 0.00 | 100 | 997.9 |
| 20260506032509 | 50 | 47 | 5.2 | 10.4 | 0.00 | 0.02 | 0.00 | 100 | 997.9 |
| 20260506032008 | 50 | 44 | 4.3 | 10.4 | 0.00 | 0.02 | 0.00 | 100 | 997.9 |
| 20260506031509 | 50 | 41 | 4.3 | 9.6 | 0.00 | 0.02 | 0.00 | 100 | 997.9 |
| 20260506031010 | 50 | 43 | 4.3 | 9.6 | 0.00 | 0.02 | 0.00 | 100 | 998.0 |
| 20260506030507 | 50 | 39 | 5.2 | 9.6 | 0.00 | 0.02 | 0.00 | 100 | 997.9 |
| 20260506030008 | 50 | 37 | 5.2 | 12.2 | 0.00 | 0.02 | 0.00 | 100 | 998.0 |
| 20260506025508 | 50 | 44 | 5.2 | 12.2 | 0.00 | 0.02 | 0.00 | 100 | 998.1 |
| 20260506025010 | 50 | 49 | 4.3 | 7.8 | 0.00 | 0.02 | 0.00 | 97 | 998.2 |
| 20260506024500 | 50 | 46 | 4.3 | 9.6 | 0.00 | 0.02 | 0.00 | 100 | 998.4 |
| 20260506024008 | 50 | 43 | 4.3 | 9.6 | 0.00 | 0.02 | 0.00 | 97 | 998.5 |
| 20260506023500 | 51 | 43 | 4.3 | 9.6 | 0.00 | 0.02 | 0.00 | 100 | 998.1 |
| 20260506023000 | 49 | 41 | 5.2 | 9.6 | 0.00 | 0.02 | 0.00 | 100 | 998.1 |
| 20260506022500 | 50 | 37 | 5.2 | 9.6 | 0.00 | 0.02 | 0.00 | 100 | 998.3 |
| 20260506022010 | 50 | 33 | 5.2 | 11.3 | 0.00 | 0.02 | 0.00 | 100 | 998.3 |
| 20260506021508 | 51 | 46 | 5.2 | 11.3 | 0.00 | 0.02 | 0.00 | 100 | 998.2 |